Location: Meeteetse
(44.0232°N, 108.9875°W)
Time: 15:25:03
(UTC-06:00)

IGS 1A - Visible Passes

Search period start: 24 April 2014 00:00
Search period end: 04 May 2014 00:00
Orbit: 357 x 358 km, 97.3° (Epoch: 22 April)

Date Brightness Start Highest point End Pass type
(mag) Time Alt. Az. Time Alt. Az. Time Alt. Az.
26 Apr 4.9 23:28:06 10° N 23:28:06 10° N 23:28:10 10° N visible
27 Apr 5.1 23:55:46 11° N 23:55:46 11° N 23:55:52 10° N visible
29 Apr 4.7 23:19:10 11° NNE 23:19:10 11° NNE 23:19:18 10° NNE visible
30 Apr 4.8 23:46:36 13° N 23:46:36 13° N 23:46:58 10° N visible
02 May 5.1 00:13:58 11° NNW 00:13:58 11° NNW 00:14:06 10° NNW visible
02 May 4.6 23:09:34 11° NNE 23:09:34 11° NNE 23:09:41 10° NNE visible
03 May 4.5 23:36:47 14° N 23:36:47 14° N 23:37:21 10° N visible
